Location: Poughquag
(41.6090°N, 73.6820°W)
Time: 15:08:27
(UTC-04:00)

Hubble Space Telescope - Visible Passes

Search period start: 08 April 2020 00:00
Search period end: 18 April 2020 00:00
Orbit: 536 x 540 km, 28.5° (Epoch: 08 April)

Date Brightness Start Highest point End Pass type
(mag) Time Alt. Az. Time Alt. Az. Time Alt. Az.
09 Apr 3.1 21:21:15 10° SSW 21:21:59 12° SSW 21:21:59 12° SSW visible
10 Apr 3.0 21:10:34 10° SSW 21:12:00 12° S 21:12:00 12° S visible
11 Apr 3.0 21:00:00 10° SSW 21:01:35 12° S 21:01:59 12° S visible
12 Apr 3.1 20:49:35 10° SSW 20:50:47 11° S 20:51:57 10° S visible
13 Apr 3.2 20:39:54 10° SSW 20:39:59 10° SSW 20:40:04 10° S visible
